[[{"header":{"parameterUnit":"m.s-1","parameterCategory":2,"la1":30.2991,"la2":30.254,"lo1":-89.0895,"lo2":-89.0444,"dy":0.0017,"dx":0.0017,"nx":28,"ny":28,"refTime":"2024-12-18T09:00:00:Z","depth":"0","parameterNumber":2,"parameterNumberName":"U-component_of_CURRENTS"},"data":[0,0,0,0,0,0,0,0,0,0,0,0,0,0,0,0,0,0,0,0,0,0,0,0,0,0,0,0,0,0,0,0,0,0,0,0,0,0,0,0,0,0,0,0,0,0,0,0,0,0,0,0,0,0,0,0,0,0,-0.2742,-0.274,0,-0.2612,-0.261,-0.2609,-0.2486,-0.2485,-0.2483,-0.2482,-0.2257,-0.2252,-0.2248,0,0,0,0,0,0,0,0,0,0,0,0,0,-0.2835,-0.2834,-0.2742,-0.274,-0.2739,-0.2612,-0.261,-0.2608,-0.2486,-0.2485,-0.2483,-0.2481,-0.2258,-0.2253,-0.2247,0,0,0,0,0,0,0,0,0,0,0,0,0,-0.2758,-0.2834,-0.2742,-0.2663,-0.2655,-0.2612,-0.261,-0.2608,-0.2487,-0.2484,-0.2482,-0.248,-0.226,-0.2254,-0.2247,-0.2248,0,0,-0.2226,-0.2223,0,0,0,0,0,0,0,0,-0.2763,-0.2755,-0.2676,-0.2668,-0.2659,-0.2563,-0.256,-0.2483,-0.2487,-0.255,-0.2482,-0.2479,-0.2353,-0.2338,-0.2319,-0.2238,-0.2228,-0.2225,-0.2221,-0.2218,-0.2216,0,0,0,0,0,0,0,-0.2768,-0.2759,-0.269,-0.2675,-0.2664,-0.2617,-0.2604,-0.2545,-0.2463,-0.2544,-0.2535,-0.2523,-0.2347,-0.2326,-0.2312,-0.2225,-0.2225,-0.2219,-0.2215,-0.2212,-0.2052,-0.2052,0,0,0,0,0,0,-0.2791,-0.2765,-0.2694,-0.2686,-0.2707,-0.2618,-0.2603,-0.2596,-0.2465,-0.2444,-0.2525,-0.2517,-0.2339,-0.2321,-0.2304,-0.2229,-0.2218,-0.2211,-0.2207,-0.2052,-0.2052,-0.2051,0,0,0,0,0,0,-0.2794,-0.2786,-0.2699,-0.2722,-0.2708,-0.2619,-0.2611,-0.2594,-0.2555,-0.2452,-0.2428,-0.2501,-0.2336,-0.2314,-0.2242,-0.2221,-0.2208,-0.2202,-0.2052,-0.2052,-0.2052,-0.2122,0,0,0,0,0,0,-0.2797,-0.2788,-0.2784,-0.2724,-0.2708,-0.2656,-0.2613,-0.2593,-0.2552,-0.2541,-0.2424,-0.2402,-0.2333,-0.2253,-0.2235,-0.2211,-0.2197,-0.2052,-0.2052,-0.2052,-0.212,-0.2124,-0.2128,0,0,0,0,0,-0.2801,-0.2797,-0.2785,-0.2775,-0.2707,-0.2655,-0.2642,-0.257,-0.2553,-0.2529,-0.2463,-0.2404,-0.2238,-0.2248,-0.2227,-0.22,-0.2052,-0.2052,-0.2052,-0.2118,-0.2123,-0.2128,0,0,0,0,0,0,-0.2816,-0.2783,-0.2768,-0.2749,-0.2702,-0.2634,-0.2605,-0.2576,-0.2509,-0.2499,-0.2408,-0.2381,-0.2311,-0.2254,-0.2267,-0.2155,-0.2133,-0.2129,-0.2191,-0.2195,-0.2199,-0.215,-0.2191,0,0,0,0,0,-0.2828,-0.2824,-0.2775,-0.2758,-0.2738,-0.268,-0.265,-0.2614,-0.2552,-0.252,-0.2445,-0.2367,-0.23,-0.2247,-0.2183,-0.2124,-0.2059,-0.2092,-0.2097,-0.21,-0.2047,-0.1956,-0.1947,-0.2051,-0.2051,-0.2051,0,0,-0.2826,-0.281,-0.2803,-0.2762,-0.2721,-0.2678,-0.2654,-0.2615,-0.2573,-0.2508,-0.2428,-0.2384,-0.2292,-0.2224,-0.2186,-0.2167,-0.205,-0.21,-0.2104,-0.2047,-0.1955,-0.1944,-0.1935,-0.2051,-0.2051,-0.2051,0,0,-0.28,-0.2809,-0.2779,-0.2758,-0.2712,-0.2682,-0.2675,-0.2615,-0.2576,-0.252,-0.2464,-0.2399,-0.2302,-0.222,-0.217,-0.2156,-0.2086,-0.2154,-0.2115,-0.2031,-0.202,-0.201,-0.1972,-0.1958,-0.2143,-0.2143,-0.2143,0,-0.279,-0.2744,-0.2759,-0.2725,-0.2687,-0.2684,-0.2624,-0.2607,-0.2532,-0.2484,-0.2495,-0.2339,-0.2283,-0.2164,-0.2164,-0.2157,-0.2119,-0.211,-0.2034,-0.2022,-0.2011,-0.1973,-0.1956,-0.2146,-0.2146,-0.2145,-0.2145,0,-0.2718,-0.2695,-0.2677,-0.2635,-0.2616,-0.257,-0.2554,-0.2528,-0.2506,-0.2465,-0.237,-0.2312,-0.2199,-0.2199,-0.2173,-0.2065,-0.2074,-0.2066,-0.2022,-0.2004,-0.1967,-0.1949,-0.2151,-0.215,-0.2149,-0.2148,0,0,-0.2621,-0.262,-0.2605,-0.257,-0.2558,-0.2522,-0.2494,-0.2417,-0.2363,-0.2338,-0.223,-0.2165,-0.2146,-0.2086,-0.2063,-0.1993,-0.1926,-0.1999,-0.1993,-0.196,-0.1771,-0.1645,-0.1612,-0.1916,-0.1912,-0.1908,-0.18,0,-0.2521,-0.2443,-0.2475,-0.2395,-0.2336,-0.2368,-0.233,-0.2298,-0.227,-0.2192,-0.2149,-0.2061,-0.2105,-0.2057,-0.2001,-0.1939,-0.187,-0.1957,-0.1789,-0.1783,-0.1671,-0.1582,-0.1405,-0.1278,-0.1781,-0.1778,-0.1776,0,-0.2383,-0.2354,-0.2261,-0.2241,-0.2219,-0.22,-0.2125,-0.2101,-0.2049,-0.2025,-0.1966,-0.1947,-0.1858,-0.1899,-0.1773,-0.1836,-0.1788,-0.1752,-0.1747,-0.1566,-0.1616,-0.1363,-0.1225,-0.1251,-0.1746,-0.1748,-0.1751,0,-0.2222,-0.2186,-0.2104,-0.2097,-0.2091,-0.2061,-0.2056,-0.2025,-0.199,-0.1918,-0.1885,-0.18,-0.175,-0.1682,-0.1639,-0.1702,-0.1487,-0.1566,-0.1403,-0.1398,-0.1169,-0.1148,-0.1012,-0.1421,-0.1422,-0.1422,-0.1422,0,-0.205,-0.1983,-0.2034,-0.1985,-0.1902,-0.1952,-0.1866,-0.186,-0.1835,-0.174,-0.1795,-0.1674,-0.169,-0.1594,-0.1568,-0.1405,-0.143,-0.1336,-0.132,-0.1197,-0.118,-0.1129,-0.121,-0.1418,-0.1419,-0.1419,-0.142,0,-0.1847,-0.1878,-0.1806,-0.1818,-0.1822,-0.1766,-0.1786,-0.1729,-0.1747,-0.1628,-0.1605,-0.1572,-0.1432,-0.1434,-0.1295,-0.129,-0.1115,-0.1088,-0.0965,-0.0932,-0.0826,-0.0918,-0.0744,-0.0726,-0.0905,-0.09,-0.0897,0,-0.1711,-0.1659,-0.1685,-0.1664,-0.1668,-0.1631,-0.1604,-0.1649,-0.161,-0.1503,-0.1424,-0.1303,-0.1087,-0.0912,-0.087,-0.0774,-0.0879,-0.0606,-0.0663,-0.0723,-0.0817,-0.0934,-0.0944,-0.0437,-0.043,-0.0424,-0.0419,0,-0.1476,-0.1523,-0.1494,-0.1462,-0.1446,-0.1416,-0.1399,-0.1354,-0.1351,-0.1243,-0.0997,-0.0798,-0.0634,-0.0367,-0.0329,-0.0321,-0.0583,-0.0481,-0.0541,-0.0392,-0.0506,-0.0513,-0.0678,-0.0367,-0.0372,-0.0376,-0.0378,-0.0381,-0.1326,-0.1283,-0.1292,-0.1245,-0.1235,-0.1175,-0.1078,-0.1045,-0.0901,-0.067,-0.0571,-0.022,0.0048,0.0176,0.0082,0.0,-0.0159,0.0004,-0.0098,-0.021,-0.017,-0.0228,0.01,0.0098,0.0096,0.0094,0.0092,0,-0.1128,-0.1117,-0.1071,-0.1028,-0.0954,-0.1008,-0.0914,-0.078,-0.0521,-0.0296,-0.0007,0.0437,0.0705,0.066,0.0648,0.0481,0.0261,0.0324,0.0188,0.016,0.0161,0.0206,0.0574,0.0574,0.0574,0.0574,0.0574,0.0574,-0.1028,-0.0939,-0.0931,-0.0764,-0.0732,-0.0559,-0.0463,-0.0269,-0.0088,0.0351,0.0612,0.0774,0.0915,0.1031,0.0861,0.0689,0.0428,0.04,0.0222,0.0196,0.0155,0.0117,0.0144,0.0492,0.0492,0.0306,0.0304,0.0303]},{"header":{"parameterUnit":"m.s-1","parameterCategory":2,"la1":30.2991,"la2":30.254,"lo1":-89.0895,"lo2":-89.0444,"dy":0.0017,"dx":0.0017,"nx":28,"ny":28,"refTime":"2024-12-18T09:00:00:Z","depth":"0","parameterNumber":3,"parameterNumberName":"V-component_of_CURRENTS"},"data":[0,0,0,0,0,0,0,0,0,0,0,0,0,0,0,0,0,0,0,0,0,0,0,0,0,0,0,0,0,0,0,0,0,0,0,0,0,0,0,0,0,0,0,0,0,0,0,0,0,0,0,0,0,0,0,0,0,0,0.0304,0.0305,0,0.037,0.0371,0.0372,0.0424,0.0425,0.0425,0.0425,0.0513,0.0515,0.0517,0,0,0,0,0,0,0,0,0,0,0,0,0,0.022,0.0221,0.0304,0.0305,0.0306,0.037,0.0371,0.0372,0.0424,0.0425,0.0425,0.0426,0.0512,0.0515,0.0517,0,0,0,0,0,0,0,0,0,0,0,0,0,0.027,0.0222,0.0304,0.0338,0.0342,0.037,0.0371,0.0372,0.0424,0.0425,0.0425,0.0426,0.0512,0.0515,0.0518,0.0525,0,0,0.0527,0.0528,0,0,0,0,0,0,0,0,0.0267,0.0273,0.0332,0.0336,0.034,0.0388,0.0373,0.0424,0.0424,0.0395,0.0425,0.0426,0.0472,0.0478,0.0491,0.0529,0.0532,0.0527,0.0529,0.053,0.0531,0,0,0,0,0,0,0,0.0263,0.027,0.0332,0.0333,0.0338,0.0349,0.0357,0.0383,0.0431,0.0397,0.0401,0.0405,0.0474,0.0488,0.0494,0.0534,0.0527,0.0529,0.0531,0.0532,0.0502,0.05,0,0,0,0,0,0,0.0252,0.0267,0.033,0.0334,0.0302,0.035,0.0359,0.0373,0.043,0.0439,0.0405,0.0407,0.0483,0.049,0.0497,0.0453,0.053,0.0533,0.0534,0.0505,0.0501,0.0499,0,0,0,0,0,0,0.025,0.0257,0.0327,0.03,0.0309,0.035,0.0367,0.0374,0.0385,0.0435,0.0445,0.0406,0.0484,0.0493,0.0499,0.0459,0.0534,0.0537,0.0508,0.0504,0.05,0.04,0,0,0,0,0,0,0.0247,0.0256,0.0257,0.03,0.0311,0.0317,0.0366,0.0375,0.0386,0.039,0.044,0.0449,0.0485,0.0494,0.0502,0.0464,0.0539,0.0511,0.0506,0.0501,0.0407,0.0393,0.0382,0,0,0,0,0,0.0244,0.0224,0.0257,0.0264,0.0313,0.0315,0.0321,0.0353,0.0385,0.037,0.0407,0.0447,0.0468,0.0495,0.0505,0.0467,0.0513,0.0507,0.0502,0.0412,0.0396,0.0382,0,0,0,0,0,0,0.0172,0.023,0.0265,0.0262,0.0281,0.0323,0.031,0.0345,0.0365,0.0371,0.043,0.044,0.0424,0.0456,0.0484,0.0438,0.0491,0.0487,0.0419,0.0405,0.0392,0.0374,0.0542,0,0,0,0,0,0.0163,0.0172,0.0221,0.0214,0.0223,0.0271,0.0278,0.0302,0.0329,0.0339,0.0375,0.04,0.0407,0.0416,0.0427,0.0417,0.0453,0.039,0.0378,0.0367,0.0355,0.0351,0.0337,0.048,0.048,0.048,0,0,0.0131,0.0164,0.0168,0.0201,0.0223,0.0202,0.0275,0.0272,0.0252,0.0345,0.0324,0.0362,0.0393,0.0371,0.0366,0.0395,0.0351,0.036,0.0351,0.0344,0.0343,0.033,0.0318,0.0476,0.0476,0.0477,0,0,0.0045,0.0104,0.0072,0.0087,0.0113,0.0143,0.0139,0.0177,0.0191,0.0189,0.0236,0.0251,0.0272,0.0282,0.0291,0.0217,0.0283,0.0213,0.0143,0.0139,0.0128,0.0118,0.0178,0.0174,0.021,0.0209,0.0209,0,-0.0006,-0.0018,0.0055,0.0022,0.0022,0.0109,0.006,0.0082,0.0114,0.0119,0.016,0.0184,0.0224,0.0193,0.0169,0.019,0.0219,0.0204,0.0124,0.0115,0.0107,0.0171,0.0168,0.0204,0.0205,0.0205,0.0206,0,-0.0119,-0.0123,-0.0147,-0.0145,-0.0139,-0.0164,-0.0117,-0.011,-0.0063,-0.0031,-0.0035,0.0025,0.0043,0.0049,0.0096,0.0046,0.0098,0.011,0.0168,0.0087,0.0159,0.0158,0.0196,0.0198,0.02,0.0201,0,0,-0.0255,-0.0232,-0.0241,-0.0251,-0.0222,-0.023,-0.0256,-0.0252,-0.026,-0.0215,-0.0229,-0.0201,-0.0136,-0.0123,-0.0066,-0.0061,-0.0065,-0.0003,-0.0,0.0067,-0.0033,0.0043,0.0051,-0.007,-0.0072,-0.0073,0.0053,0,-0.0374,-0.0448,-0.0409,-0.0479,-0.0505,-0.0431,-0.0456,-0.0431,-0.0385,-0.0372,-0.0301,-0.0291,-0.0213,-0.0192,-0.0179,-0.0091,-0.0078,-0.0097,0.0026,0.003,0.0115,0.0047,0.0129,0.025,0.0053,0.0053,0.0053,0,-0.0505,-0.0527,-0.061,-0.0606,-0.0614,-0.0643,-0.0633,-0.0642,-0.0592,-0.0552,-0.0514,-0.0441,-0.0401,-0.0331,-0.0231,-0.0247,-0.0158,-0.0087,-0.0081,0.0019,0.0102,0.029,0.0257,0.0271,0.0053,0.0053,0.0053,0,-0.0612,-0.0665,-0.0725,-0.0728,-0.0722,-0.0745,-0.0738,-0.07,-0.0686,-0.0658,-0.0613,-0.0576,-0.049,-0.0437,-0.0239,-0.0255,-0.0106,-0.011,0.004,0.0051,0.0159,0.018,0.016,-0.0077,-0.0077,-0.0078,-0.0078,0,-0.0733,-0.0778,-0.0776,-0.0804,-0.0867,-0.0832,-0.0875,-0.0851,-0.0806,-0.0733,-0.0699,-0.0594,-0.0512,-0.0383,-0.0279,-0.0085,-0.0131,0.002,0.0067,0.013,0.0146,0.0196,0.018,-0.0073,-0.0074,-0.0075,-0.0075,0,-0.081,-0.0822,-0.0881,-0.0901,-0.091,-0.0944,-0.0929,-0.0932,-0.0882,-0.0779,-0.0759,-0.0604,-0.0411,-0.0305,-0.0149,-0.0077,0.0096,0.0125,0.0231,0.0286,0.0382,0.0358,0.0404,0.0475,0.0262,0.0264,0.0266,0,-0.0843,-0.0882,-0.0932,-0.0961,-0.0969,-0.1005,-0.1005,-0.0975,-0.0913,-0.0713,-0.0622,-0.0447,-0.0196,0.0031,0.0112,0.0255,0.027,0.0395,0.0346,0.0386,0.0394,0.0369,0.0422,0.0478,0.0482,0.0484,0.0487,0,-0.0882,-0.09,-0.0936,-0.1,-0.1027,-0.1035,-0.0995,-0.0938,-0.08,-0.0649,-0.0316,-0.0116,0.0115,0.0344,0.044,0.0506,0.0414,0.0457,0.0452,0.0509,0.0526,0.0621,0.0438,0.0512,0.051,0.0508,0.0507,0.0506,-0.0882,-0.0918,-0.0961,-0.102,-0.1046,-0.0981,-0.0899,-0.0763,-0.0571,-0.0193,-0.0022,0.0397,0.0563,0.0725,0.0703,0.0686,0.0646,0.0727,0.069,0.0657,0.0714,0.0609,0.0751,0.075,0.0749,0.0749,0.0748,0,-0.0865,-0.0909,-0.0966,-0.0998,-0.0984,-0.0993,-0.0825,-0.0644,-0.0292,0.0067,0.045,0.0959,0.1058,0.1048,0.0978,0.0932,0.0889,0.0926,0.0888,0.093,0.0811,0.0807,0.1024,0.1024,0.1024,0.1024,0.1024,0.1024,-0.0859,-0.0906,-0.0945,-0.0923,-0.0909,-0.0748,-0.0596,-0.0284,0.0029,0.066,0.1101,0.1405,0.1514,0.1201,0.1057,0.1036,0.1038,0.1039,0.1029,0.0908,0.0885,0.0863,0.0854,0.1077,0.1077,0.1204,0.1204,0.1205]}],[{"header":{"parameterUnit":"m.s-1","parameterCategory":2,"la1":30.2991,"la2":30.254,"lo1":-89.0895,"lo2":-89.0444,"dy":0.0017,"dx":0.0017,"nx":28,"ny":28,"refTime":"2024-12-18T09:00:00:Z","depth":"2","parameterNumber":2,"parameterNumberName":"U-component_of_CURRENTS"},"data":[0,0,0,0,0,0,0,0,0,0,0,0,0,0,0,0,0,0,0,0,0,0,0,0,0,0,0,0,0,0,0,0,0,0,0,0,0,0,0,0,0,0,0,0,0,0,0,0,0,0,0,0,0,0,0,0,0,0,-0.1703,-0.1704,0,-0.1747,-0.1748,-0.1748,-0.1742,-0.1742,-0.1741,-0.174,-0.1762,-0.1764,-0.1765,0,0,0,0,0,0,0,0,0,0,0,0,0,-0.1649,-0.165,-0.1703,-0.1704,-0.1704,-0.1747,-0.1748,-0.1748,-0.1742,-0.1742,-0.1741,-0.174,-0.1762,-0.1763,-0.1765,0,0,0,0,0,0,0,0,0,0,0,0,0,-0.1681,-0.165,-0.1703,-0.1707,-0.1707,-0.1747,-0.1748,-0.1748,-0.1743,-0.1742,-0.174,-0.1739,-0.1761,-0.1763,-0.1765,-0.1799,0,0,-0.1771,-0.1772,0,0,0,0,0,0,0,0,-0.1679,-0.1683,-0.1706,-0.1706,-0.1707,-0.1738,-0.1737,-0.1764,-0.1743,-0.1729,-0.174,-0.1739,-0.1753,-0.1756,-0.1767,-0.18,-0.1801,-0.1771,-0.1772,-0.1773,-0.1774,0,0,0,0,0,0,0,-0.1677,-0.1681,-0.1721,-0.1706,-0.1707,-0.1718,-0.1721,-0.1742,-0.1746,-0.173,-0.173,-0.1735,-0.1753,-0.1765,-0.1767,-0.1801,-0.1771,-0.1773,-0.1774,-0.1775,-0.1895,-0.1897,0,0,0,0,0,0,-0.1671,-0.1679,-0.1719,-0.1722,-0.169,-0.1719,-0.1723,-0.1729,-0.1747,-0.1748,-0.1736,-0.1735,-0.1762,-0.1765,-0.1768,-0.1781,-0.1773,-0.1775,-0.1776,-0.1893,-0.1896,-0.1898,0,0,0,0,0,0,-0.1669,-0.1674,-0.1718,-0.1701,-0.1707,-0.1721,-0.1729,-0.1731,-0.1745,-0.1751,-0.1752,-0.1748,-0.1761,-0.1765,-0.1791,-0.1783,-0.1776,-0.1777,-0.1891,-0.1894,-0.1897,-0.1825,0,0,0,0,0,0,-0.1668,-0.1673,-0.1673,-0.1701,-0.1708,-0.174,-0.173,-0.1732,-0.1749,-0.1748,-0.1762,-0.1763,-0.1761,-0.1788,-0.1793,-0.1785,-0.1779,-0.1888,-0.1892,-0.1896,-0.1825,-0.1825,-0.1826,0,0,0,0,0,-0.1666,-0.1668,-0.1673,-0.1677,-0.1708,-0.1741,-0.1745,-0.1751,-0.1751,-0.176,-0.1772,-0.1762,-0.1817,-0.1791,-0.1796,-0.1788,-0.1886,-0.1891,-0.1896,-0.1825,-0.1825,-0.1826,0,0,0,0,0,0,-0.1648,-0.1668,-0.1674,-0.1683,-0.171,-0.1739,-0.1741,-0.1759,-0.1778,-0.1772,-0.1781,-0.1784,-0.1807,-0.1827,-0.1799,-0.1845,-0.1854,-0.186,-0.1799,-0.18,-0.18,-0.1737,-0.1781,0,0,0,0,0,-0.1644,-0.1647,-0.1678,-0.1687,-0.1695,-0.1723,-0.1736,-0.1749,-0.1771,-0.1777,-0.1792,-0.1814,-0.1834,-0.1837,-0.1865,-0.1884,-0.1863,-0.1892,-0.1892,-0.1892,-0.1851,-0.1828,-0.1819,-0.1913,-0.1913,-0.1913,0,0,-0.1641,-0.1651,-0.1654,-0.1682,-0.1696,-0.1712,-0.1727,-0.1749,-0.1754,-0.1778,-0.1788,-0.1818,-0.1846,-0.1861,-0.1874,-0.187,-0.1862,-0.1898,-0.1896,-0.1855,-0.1831,-0.1821,-0.1811,-0.1916,-0.1916,-0.1915,0,0,-0.1638,-0.1643,-0.1646,-0.1665,-0.169,-0.1705,-0.1715,-0.1752,-0.1754,-0.1786,-0.1798,-0.1799,-0.1866,-0.1841,-0.1848,-0.1871,-0.1872,-0.1929,-0.1859,-0.1837,-0.1827,-0.1817,-0.1787,-0.1776,-0.1918,-0.1918,-0.1918,0,-0.163,-0.1639,-0.1655,-0.1665,-0.1672,-0.1702,-0.1713,-0.1723,-0.1766,-0.1764,-0.1784,-0.1831,-0.1831,-0.1816,-0.1815,-0.1856,-0.1868,-0.1841,-0.1828,-0.1819,-0.181,-0.1782,-0.1769,-0.1915,-0.1915,-0.1916,-0.1916,0,-0.1632,-0.164,-0.1641,-0.1654,-0.167,-0.1683,-0.1701,-0.1714,-0.173,-0.1743,-0.1752,-0.1758,-0.1774,-0.179,-0.1797,-0.1757,-0.1794,-0.1831,-0.1803,-0.1794,-0.1768,-0.1756,-0.1911,-0.1912,-0.1913,-0.1913,0,0,-0.1607,-0.1635,-0.1635,-0.1639,-0.1663,-0.1676,-0.1675,-0.1682,-0.1676,-0.1701,-0.1691,-0.1682,-0.1689,-0.1696,-0.1713,-0.1672,-0.1601,-0.1724,-0.1724,-0.165,-0.1567,-0.1481,-0.1461,-0.166,-0.1658,-0.1656,-0.1573,0,-0.1599,-0.161,-0.1629,-0.1636,-0.1638,-0.1658,-0.1656,-0.1664,-0.1674,-0.1675,-0.165,-0.1659,-0.1658,-0.1668,-0.1621,-0.163,-0.157,-0.162,-0.1624,-0.1622,-0.151,-0.1442,-0.1344,-0.1253,-0.1562,-0.156,-0.1559,0,-0.1584,-0.1593,-0.16,-0.1616,-0.1619,-0.1628,-0.1623,-0.1631,-0.1625,-0.1635,-0.162,-0.1635,-0.1568,-0.1585,-0.1511,-0.1567,-0.1537,-0.1525,-0.1524,-0.1445,-0.1512,-0.1317,-0.122,-0.1539,-0.1541,-0.1542,-0.1543,0,-0.154,-0.1566,-0.1566,-0.1573,-0.16,-0.1599,-0.161,-0.1613,-0.1613,-0.1605,-0.1612,-0.1572,-0.1551,-0.1516,-0.1465,-0.1509,-0.1391,-0.1455,-0.1334,-0.133,-0.1236,-0.1226,-0.136,-0.136,-0.136,-0.136,-0.1361,0,-0.1507,-0.1505,-0.1546,-0.1544,-0.1541,-0.1572,-0.1567,-0.1574,-0.1585,-0.1567,-0.1584,-0.1552,-0.1536,-0.1482,-0.1449,-0.1332,-0.137,-0.127,-0.1281,-0.1215,-0.1204,-0.1456,-0.1468,-0.1357,-0.1358,-0.1359,-0.1359,0,-0.1448,-0.1478,-0.1478,-0.1509,-0.1519,-0.1514,-0.1546,-0.1536,-0.1564,-0.1541,-0.1538,-0.1526,-0.1442,-0.1405,-0.1329,-0.1285,-0.1205,-0.1152,-0.1062,-0.106,-0.117,-0.118,-0.1012,-0.1008,-0.1004,-0.1001,-0.0999,0,-0.1415,-0.1411,-0.1443,-0.144,-0.1452,-0.1463,-0.1462,-0.1507,-0.1496,-0.1503,-0.1472,-0.1415,-0.1331,-0.1192,-0.1089,-0.0981,-0.107,-0.0846,-0.0869,-0.1095,-0.1123,-0.114,-0.1155,-0.0737,-0.0733,-0.0729,-0.0726,0,-0.1342,-0.1357,-0.1358,-0.1355,-0.1356,-0.1363,-0.1367,-0.1364,-0.1395,-0.1388,-0.1332,-0.1279,-0.1131,-0.0961,-0.0826,-0.0757,-0.0861,-0.0766,-0.1006,-0.0839,-0.0828,-0.086,-0.0885,-0.0694,-0.0697,-0.07,-0.0701,-0.0703,-0.1273,-0.1256,-0.1255,-0.1245,-0.125,-0.1228,-0.119,-0.1207,-0.1183,-0.1133,-0.1158,-0.1039,-0.0978,-0.0695,-0.0599,-0.0506,-0.0587,-0.0574,-0.0589,-0.0606,-0.0586,-0.057,-0.0383,-0.0385,-0.0386,-0.0387,-0.0388,0,-0.1166,-0.1153,-0.1141,-0.1111,-0.1069,-0.1114,-0.109,-0.1031,-0.0963,-0.095,-0.0897,-0.0722,-0.0582,-0.0516,-0.0317,-0.0262,-0.0288,-0.0247,-0.0313,-0.0343,-0.037,-0.0344,-0.0073,-0.0073,-0.0072,-0.0072,0,0,-0.11,-0.1044,-0.104,-0.0931,-0.0913,-0.0811,-0.0774,-0.0727,-0.069,-0.0607,-0.0548,-0.0571,-0.0521,-0.034,-0.0262,-0.0147,-0.0251,-0.0109,-0.0356,-0.0467,-0.0494,-0.0541,-0.053,0,0,0,0,0]},{"header":{"parameterUnit":"m.s-1","parameterCategory":2,"la1":30.2991,"la2":30.254,"lo1":-89.0895,"lo2":-89.0444,"dy":0.0017,"dx":0.0017,"nx":28,"ny":28,"refTime":"2024-12-18T09:00:00:Z","depth":"2","parameterNumber":3,"parameterNumberName":"V-component_of_CURRENTS"},"data":[0,0,0,0,0,0,0,0,0,0,0,0,0,0,0,0,0,0,0,0,0,0,0,0,0,0,0,0,0,0,0,0,0,0,0,0,0,0,0,0,0,0,0,0,0,0,0,0,0,0,0,0,0,0,0,0,0,0,-0.0493,-0.0492,0,-0.0457,-0.0457,-0.0456,-0.0437,-0.0437,-0.0437,-0.0436,-0.0388,-0.0387,-0.0386,0,0,0,0,0,0,0,0,0,0,0,0,0,-0.0524,-0.0524,-0.0493,-0.0492,-0.0492,-0.0457,-0.0457,-0.0456,-0.0437,-0.0437,-0.0436,-0.0436,-0.0388,-0.0387,-0.0385,0,0,0,0,0,0,0,0,0,0,0,0,0,-0.0502,-0.0524,-0.0493,-0.0478,-0.0476,-0.0457,-0.0457,-0.0456,-0.0437,-0.0437,-0.0436,-0.0436,-0.0389,-0.0387,-0.0385,-0.0376,0,0,-0.038,-0.0379,0,0,0,0,0,0,0,0,-0.0503,-0.0501,-0.048,-0.0479,-0.0477,-0.0451,-0.045,-0.0429,-0.0437,-0.0452,-0.0436,-0.0436,-0.0408,-0.0404,-0.0398,-0.0374,-0.0372,-0.0379,-0.0378,-0.0378,-0.0377,0,0,0,0,0,0,0,-0.0505,-0.0502,-0.0479,-0.048,-0.0478,-0.0466,-0.0463,-0.0446,-0.0431,-0.0451,-0.0449,-0.0445,-0.0407,-0.04,-0.0397,-0.0371,-0.038,-0.0378,-0.0377,-0.0376,-0.0288,-0.0287,0,0,0,0,0,0,-0.051,-0.0504,-0.048,-0.0478,-0.049,-0.0466,-0.0462,-0.046,-0.0431,-0.0427,-0.0445,-0.0444,-0.0403,-0.0399,-0.0395,-0.0362,-0.0378,-0.0376,-0.0375,-0.029,-0.0288,-0.0287,0,0,0,0,0,0,-0.0511,-0.0508,-0.0482,-0.049,-0.0485,-0.0465,-0.0462,-0.0459,-0.0453,-0.0427,-0.0422,-0.0442,-0.0403,-0.0398,-0.0379,-0.0361,-0.0375,-0.0373,-0.0291,-0.0289,-0.0287,-0.031,0,0,0,0,0,0,-0.0512,-0.0509,-0.0514,-0.049,-0.0485,-0.0472,-0.0462,-0.0458,-0.045,-0.0449,-0.0423,-0.0419,-0.0403,-0.0382,-0.0377,-0.0359,-0.0372,-0.0293,-0.029,-0.0288,-0.031,-0.0309,-0.0307,0,0,0,0,0,-0.0513,-0.0516,-0.0515,-0.0512,-0.0491,-0.0472,-0.0468,-0.0453,-0.045,-0.0448,-0.043,-0.042,-0.0363,-0.038,-0.0375,-0.0355,-0.0294,-0.0291,-0.0288,-0.0311,-0.0309,-0.0307,0,0,0,0,0,0,-0.0528,-0.0514,-0.0512,-0.0509,-0.0494,-0.0468,-0.0465,-0.0456,-0.044,-0.0441,-0.0417,-0.0411,-0.0382,-0.0365,-0.0384,-0.0319,-0.0321,-0.0317,-0.034,-0.0338,-0.0336,-0.0339,-0.037,0,0,0,0,0,-0.0536,-0.0538,-0.0517,-0.0517,-0.0509,-0.0489,-0.0482,-0.0472,-0.0453,-0.0446,-0.0424,-0.0396,-0.0365,-0.0352,-0.0325,-0.0301,-0.0279,-0.0278,-0.0276,-0.0275,-0.027,-0.0227,-0.0222,-0.0278,-0.0278,-0.0278,0,0,-0.0541,-0.0535,-0.0535,-0.0521,-0.0508,-0.0495,-0.0484,-0.0474,-0.0462,-0.0443,-0.0421,-0.0395,-0.0358,-0.0326,-0.031,-0.0311,-0.0247,-0.0272,-0.0272,-0.0267,-0.0224,-0.0219,-0.0214,-0.0276,-0.0276,-0.0276,0,0,-0.0548,-0.0547,-0.0548,-0.0536,-0.0521,-0.0506,-0.0504,-0.0478,-0.0466,-0.0448,-0.042,-0.0387,-0.0351,-0.0313,-0.0291,-0.0264,-0.0242,-0.0248,-0.0243,-0.0202,-0.0197,-0.0193,-0.0163,-0.0156,-0.0246,-0.0246,-0.0246,0,-0.0557,-0.0554,-0.0544,-0.0538,-0.0528,-0.0511,-0.0501,-0.0486,-0.0457,-0.0439,-0.0444,-0.0365,-0.0342,-0.0284,-0.0273,-0.0261,-0.0238,-0.026,-0.0202,-0.0197,-0.0192,-0.0163,-0.0155,-0.0247,-0.0247,-0.0247,-0.0247,0,-0.0558,-0.0557,-0.0554,-0.0542,-0.0529,-0.0521,-0.0496,-0.048,-0.0468,-0.0444,-0.0395,-0.0361,-0.0311,-0.0292,-0.0279,-0.022,-0.0215,-0.021,-0.0214,-0.0189,-0.0159,-0.015,-0.0248,-0.0248,-0.0247,-0.0247,0,0,-0.0574,-0.056,-0.0559,-0.0557,-0.0532,-0.0522,-0.0499,-0.0466,-0.0447,-0.0415,-0.038,-0.0324,-0.0301,-0.0273,-0.0241,-0.0204,-0.0158,-0.0195,-0.0193,-0.0179,-0.0072,-0.0063,-0.0053,-0.0146,-0.0144,-0.0143,-0.0067,0,-0.0579,-0.0577,-0.0561,-0.0552,-0.0547,-0.052,-0.0498,-0.0467,-0.0439,-0.0402,-0.0353,-0.0313,-0.0294,-0.0274,-0.023,-0.0176,-0.0135,-0.018,-0.0086,-0.0083,-0.0089,-0.0042,-0.0057,0.0011,-0.0058,-0.0057,-0.0056,0,-0.0585,-0.0585,-0.0581,-0.0561,-0.0554,-0.0544,-0.0506,-0.0484,-0.0424,-0.0401,-0.0347,-0.0311,-0.0243,-0.0243,-0.0134,-0.0164,-0.0116,-0.0078,-0.0074,-0.0051,-0.0057,-0.0022,0.0029,-0.0041,-0.0042,-0.0043,-0.0044,0,-0.061,-0.0596,-0.0598,-0.0591,-0.0565,-0.0555,-0.0536,-0.0485,-0.046,-0.0401,-0.0376,-0.0294,-0.0254,-0.0183,-0.0105,-0.0117,0.0008,-0.0002,0.0056,0.0056,0.0071,0.007,0.008,0.008,0.008,0.008,0.008,0,-0.0625,-0.0625,-0.0614,-0.0617,-0.0616,-0.0583,-0.0564,-0.0533,-0.0478,-0.0439,-0.038,-0.0331,-0.0237,-0.0157,-0.0094,0.0013,0.002,0.0071,0.0085,0.0063,0.0061,0.0036,0.003,0.0083,0.0082,0.0081,0.0081,0,-0.0653,-0.0644,-0.0651,-0.0636,-0.0631,-0.0634,-0.0598,-0.0577,-0.0523,-0.0471,-0.0453,-0.0348,-0.0239,-0.0144,-0.002,0.0029,0.012,0.0156,0.0117,0.0126,0.0136,0.0128,0.0227,0.0228,0.0229,0.023,0.0231,0,-0.0666,-0.0675,-0.0679,-0.0686,-0.0684,-0.0677,-0.0665,-0.0613,-0.0582,-0.0475,-0.0447,-0.0331,-0.0238,-0.0056,0.0053,0.0173,0.0169,0.0221,0.0198,0.0152,0.0155,0.0146,0.0137,0.0207,0.0208,0.0208,0.0209,0,-0.0693,-0.0699,-0.0709,-0.0725,-0.0728,-0.0721,-0.0696,-0.0677,-0.0597,-0.0542,-0.0437,-0.0356,-0.0171,-0.0032,0.012,0.0187,0.0196,0.0232,0.0217,0.0166,0.0138,0.014,0.0131,0.0212,0.0211,0.0211,0.0211,0.0211,-0.0715,-0.0736,-0.0746,-0.0758,-0.0761,-0.0747,-0.0728,-0.0682,-0.0625,-0.0498,-0.0439,-0.0284,-0.0176,0.0065,0.0154,0.0252,0.025,0.0263,0.026,0.0257,0.0235,0.021,0.0292,0.0292,0.0292,0.0292,0.0293,0,-0.0731,-0.0748,-0.0767,-0.0777,-0.0773,-0.0766,-0.0726,-0.0676,-0.0599,-0.0465,-0.0357,-0.0211,-0.0069,0.0065,0.0217,0.028,0.0268,0.0292,0.0255,0.0252,0.0249,0.0224,0.028,0.028,0.028,0.0281,0,0,-0.074,-0.076,-0.0768,-0.0769,-0.0771,-0.074,-0.071,-0.063,-0.0518,-0.0364,-0.0235,-0.0137,-0.0011,0.0077,0.0151,0.0236,0.0233,0.0246,0.025,0.0195,0.0192,0.0227,0.0185,0,0,0,0,0]}],[{"header":{"parameterUnit":"m.s-1","parameterCategory":2,"la1":30.2991,"la2":30.254,"lo1":-89.0895,"lo2":-89.0444,"dy":0.0017,"dx":0.0017,"nx":28,"ny":28,"refTime":"2024-12-18T09:00:00:Z","depth":"4","parameterNumber":2,"parameterNumberName":"U-component_of_CURRENTS"},"data":[0,0,0,0,0,0,0,0,0,0,0,0,0,0,0,0,0,0,0,0,0,0,0,0,0,0,0,0,0,0,0,0,0,0,0,0,0,0,0,0,0,0,0,0,0,0,0,0,0,0,0,0,0,0,0,0,0,0,-0.1089,-0.109,0,-0.1134,-0.1135,-0.1135,-0.1157,-0.1158,-0.1158,-0.1158,-0.119,-0.119,-0.1191,0,0,0,0,0,0,0,0,0,0,0,0,0,-0.102,-0.1021,-0.1089,-0.109,-0.109,-0.1134,-0.1135,-0.1135,-0.1157,-0.1158,-0.1158,-0.1158,-0.1189,-0.119,-0.1191,0,0,0,0,0,0,0,0,0,0,0,0,0,-0.1054,-0.1022,-0.1089,-0.1109,-0.1111,-0.1134,-0.1135,-0.1135,-0.1157,-0.1158,-0.1158,-0.1158,-0.1189,-0.119,-0.1191,-0.119,0,0,-0.1194,-0.1194,0,0,0,0,0,0,0,0,-0.1052,-0.1056,-0.1105,-0.1107,-0.111,-0.1143,-0.1122,-0.1154,-0.1157,-0.1137,-0.1158,-0.1158,-0.1174,-0.1176,-0.1181,-0.1192,-0.1193,-0.1194,-0.1195,-0.1195,-0.1195,0,0,0,0,0,0,0,-0.105,-0.1054,-0.1104,-0.1106,-0.1109,-0.1115,-0.112,-0.1128,-0.1151,-0.1139,-0.1141,-0.115,-0.1175,-0.118,-0.1182,-0.1194,-0.1194,-0.1195,-0.1195,-0.1196,-0.1236,-0.1237,0,0,0,0,0,0,-0.1049,-0.1052,-0.1103,-0.1106,-0.1084,-0.1116,-0.1122,-0.113,-0.1151,-0.1156,-0.115,-0.1151,-0.1178,-0.1181,-0.1183,-0.1215,-0.1195,-0.1196,-0.1196,-0.1236,-0.1236,-0.1237,0,0,0,0,0,0,-0.1047,-0.1053,-0.1101,-0.1082,-0.1089,-0.1117,-0.1126,-0.1131,-0.1155,-0.116,-0.1164,-0.1173,-0.1178,-0.1182,-0.1207,-0.1215,-0.1196,-0.1197,-0.1235,-0.1236,-0.1236,-0.1258,0,0,0,0,0,0,-0.1045,-0.1052,-0.1066,-0.1082,-0.109,-0.1125,-0.1126,-0.1131,-0.116,-0.1163,-0.1181,-0.1183,-0.1179,-0.1206,-0.1208,-0.1216,-0.1198,-0.1234,-0.1235,-0.1236,-0.1257,-0.126,-0.1262,0,0,0,0,0,-0.1042,-0.1055,-0.1066,-0.1073,-0.1105,-0.1126,-0.113,-0.115,-0.1161,-0.1173,-0.1188,-0.1183,-0.1213,-0.1207,-0.121,-0.1218,-0.1234,-0.1235,-0.1236,-0.1256,-0.1259,-0.1262,0,0,0,0,0,0,-0.1038,-0.1059,-0.1071,-0.1093,-0.1114,-0.1131,-0.1148,-0.1162,-0.1184,-0.1192,-0.1195,-0.1198,-0.1217,-0.1219,-0.1213,-0.1232,-0.122,-0.1222,-0.1234,-0.1238,-0.124,-0.1229,-0.1199,0,0,0,0,0,-0.1042,-0.1056,-0.1079,-0.1099,-0.1111,-0.1134,-0.1149,-0.1163,-0.1182,-0.1193,-0.1208,-0.1219,-0.122,-0.1232,-0.1234,-0.1254,-0.1236,-0.1259,-0.1262,-0.1264,-0.1256,-0.1249,-0.125,-0.124,-0.124,-0.124,0,0,-0.1049,-0.1062,-0.1073,-0.1099,-0.1118,-0.1139,-0.1144,-0.1172,-0.1189,-0.1192,-0.1227,-0.123,-0.1227,-0.1241,-0.125,-0.1248,-0.1256,-0.1265,-0.1267,-0.1258,-0.125,-0.1251,-0.1252,-0.1241,-0.1241,-0.1241,0,0,-0.1063,-0.1079,-0.1096,-0.1113,-0.1144,-0.1154,-0.1168,-0.1198,-0.1211,-0.1243,-0.124,-0.1248,-0.1275,-0.1262,-0.126,-0.1279,-0.1265,-0.1289,-0.1299,-0.1293,-0.1294,-0.1294,-0.1263,-0.126,-0.1296,-0.1296,-0.1296,0,-0.1073,-0.1094,-0.1106,-0.1126,-0.1144,-0.1164,-0.1188,-0.1201,-0.1238,-0.1248,-0.1259,-0.128,-0.1276,-0.1275,-0.1277,-0.1282,-0.1275,-0.1288,-0.1296,-0.1296,-0.1295,-0.1264,-0.1261,-0.1297,-0.1297,-0.1297,-0.1296,0,-0.1093,-0.1118,-0.113,-0.1159,-0.1178,-0.1201,-0.1221,-0.1244,-0.1267,-0.128,-0.1299,-0.1296,-0.1305,-0.1305,-0.1297,-0.1295,-0.1288,-0.1295,-0.1286,-0.1298,-0.1264,-0.126,-0.1299,-0.1298,-0.1298,-0.1297,0,0,-0.109,-0.1136,-0.1142,-0.1161,-0.1197,-0.1212,-0.1239,-0.1263,-0.1279,-0.1309,-0.1326,-0.1322,-0.1325,-0.132,-0.1313,-0.1307,-0.1289,-0.1306,-0.1306,-0.1272,-0.1265,-0.1158,-0.1143,-0.131,-0.131,-0.131,-0.1238,0,-0.1105,-0.1143,-0.1164,-0.1203,-0.1222,-0.1246,-0.1267,-0.129,-0.131,-0.1331,-0.1326,-0.1336,-0.1329,-0.1334,-0.1327,-0.1299,-0.1283,-0.1307,-0.1262,-0.126,-0.116,-0.1136,-0.1309,-0.1235,-0.1234,-0.1234,-0.1233,0,-0.1112,-0.1136,-0.1177,-0.1218,-0.1229,-0.1256,-0.1287,-0.1309,-0.1331,-0.1347,-0.136,-0.136,-0.1344,-0.1344,-0.13,-0.1323,-0.1292,-0.127,-0.1267,-0.1154,-0.1145,-0.1224,-0.1226,-0.1227,-0.1227,-0.1228,-0.1228,0,-0.1085,-0.114,-0.1171,-0.1187,-0.1238,-0.1261,-0.1287,-0.1317,-0.133,-0.1355,-0.1365,-0.1362,-0.1348,-0.133,-0.1273,-0.1297,-0.1217,-0.1245,-0.1114,-0.1106,-0.1218,-0.1218,-0.1209,-0.1209,-0.1209,-0.1209,-0.1209,0,-0.1072,-0.1098,-0.1165,-0.1179,-0.1213,-0.1254,-0.1285,-0.1309,-0.134,-0.1334,-0.1369,-0.1346,-0.1347,-0.1302,-0.127,-0.1157,-0.1211,-0.1094,-0.1076,-0.1227,-0.123,-0.1214,-0.1216,-0.1207,-0.1207,-0.1208,-0.1208,0,-0.103,-0.1077,-0.1114,-0.1179,-0.1201,-0.1222,-0.1281,-0.1287,-0.1331,-0.1323,-0.1329,-0.1328,-0.1253,-0.1229,-0.1168,-0.1121,-0.1049,-0.0997,-0.1131,-0.1125,-0.0947,-0.0951,-0.0852,-0.0848,-0.0844,-0.0841,-0.0838,0,-0.1007,-0.1026,-0.1102,-0.1118,-0.1151,-0.1195,-0.1211,-0.1271,-0.1267,-0.1283,-0.1254,-0.1213,-0.1189,-0.1013,-0.1011,-0.0925,-0.0914,-0.088,-0.0937,-0.0915,-0.0909,-0.0919,-0.0928,-0.0832,-0.0831,-0.083,-0.0829,0,-0.0958,-0.0997,-0.1023,-0.1057,-0.1084,-0.1109,-0.1135,-0.1128,-0.1164,-0.1225,-0.1134,-0.108,-0.0985,-0.0922,-0.0847,-0.08,-0.0911,-0.084,-0.0849,-0.0902,-0.089,-0.0889,-0.0902,-0.0816,-0.0818,-0.0819,-0.082,0,-0.0915,-0.0918,-0.0952,-0.097,-0.1003,-0.0987,-0.1025,-0.1001,-0.1011,-0.1037,-0.0994,-0.0953,-0.0958,-0.0852,-0.0788,-0.0722,-0.0721,-0.0715,-0.0731,-0.0745,-0.0741,-0.0712,-0.0546,0,0,0,0,0,-0.086,-0.0844,-0.0857,-0.0858,-0.0887,-0.0898,-0.0945,-0.098,-0.1023,-0.0926,-0.096,-0.0866,-0.0763,-0.0751,-0.0654,-0.0731,-0.0723,-0.0617,-0.0726,-0.0742,-0.0758,-0.0762,0,0,0,0,0,0,-0.0815,-0.0821,-0.082,-0.0757,-0.0735,-0.0742,-0.0766,-0.0802,-0.076,-0.0812,-0.0758,-0.0803,-0.0713,-0.0783,-0.0628,-0.0622,-0.067,-0.0608,-0.0605,-0.0734,-0.0748,-0.076,-0.077,0,0,0,0,0]},{"header":{"parameterUnit":"m.s-1","parameterCategory":2,"la1":30.2991,"la2":30.254,"lo1":-89.0895,"lo2":-89.0444,"dy":0.0017,"dx":0.0017,"nx":28,"ny":28,"refTime":"2024-12-18T09:00:00:Z","depth":"4","parameterNumber":3,"parameterNumberName":"V-component_of_CURRENTS"},"data":[0,0,0,0,0,0,0,0,0,0,0,0,0,0,0,0,0,0,0,0,0,0,0,0,0,0,0,0,0,0,0,0,0,0,0,0,0,0,0,0,0,0,0,0,0,0,0,0,0,0,0,0,0,0,0,0,0,0,-0.0382,-0.0382,0,-0.0387,-0.0387,-0.0387,-0.0386,-0.0386,-0.0385,-0.0385,-0.0383,-0.0383,-0.0383,0,0,0,0,0,0,0,0,0,0,0,0,0,-0.0381,-0.0381,-0.0382,-0.0382,-0.0382,-0.0387,-0.0387,-0.0387,-0.0386,-0.0386,-0.0385,-0.0385,-0.0383,-0.0383,-0.0383,0,0,0,0,0,0,0,0,0,0,0,0,0,-0.0384,-0.0381,-0.0382,-0.0381,-0.0381,-0.0387,-0.0387,-0.0387,-0.0386,-0.0386,-0.0385,-0.0385,-0.0383,-0.0383,-0.0383,-0.0389,0,0,-0.0384,-0.0384,0,0,0,0,0,0,0,0,-0.0384,-0.0384,-0.0382,-0.0381,-0.0381,-0.0385,-0.0386,-0.0387,-0.0386,-0.0385,-0.0385,-0.0385,-0.0383,-0.0383,-0.0386,-0.0389,-0.0389,-0.0384,-0.0384,-0.0384,-0.0384,0,0,0,0,0,0,0,-0.0384,-0.0384,-0.0385,-0.0381,-0.0381,-0.0384,-0.0384,-0.0386,-0.0386,-0.0385,-0.0385,-0.0384,-0.0383,-0.0385,-0.0385,-0.0389,-0.0384,-0.0384,-0.0384,-0.0384,-0.0383,-0.0383,0,0,0,0,0,0,-0.0381,-0.0384,-0.0385,-0.0385,-0.0381,-0.0384,-0.0384,-0.0384,-0.0386,-0.0386,-0.0384,-0.0384,-0.0385,-0.0385,-0.0385,-0.0372,-0.0384,-0.0384,-0.0384,-0.0383,-0.0383,-0.0383,0,0,0,0,0,0,-0.0381,-0.0381,-0.0384,-0.0384,-0.0384,-0.0384,-0.0385,-0.0385,-0.0392,-0.0385,-0.0385,-0.0391,-0.0385,-0.0385,-0.0388,-0.0373,-0.0384,-0.0384,-0.0383,-0.0383,-0.0383,-0.0359,0,0,0,0,0,0,-0.0381,-0.0381,-0.0389,-0.0383,-0.0384,-0.0386,-0.0385,-0.0385,-0.0391,-0.0391,-0.0391,-0.039,-0.0385,-0.0388,-0.0388,-0.0373,-0.0385,-0.0383,-0.0383,-0.0383,-0.036,-0.0358,-0.0357,0,0,0,0,0,-0.0381,-0.0388,-0.039,-0.039,-0.0392,-0.0386,-0.0386,-0.0386,-0.0391,-0.0393,-0.0394,-0.0391,-0.0386,-0.0388,-0.0388,-0.0373,-0.0384,-0.0383,-0.0383,-0.0361,-0.0359,-0.0357,0,0,0,0,0,0,-0.0392,-0.0388,-0.039,-0.0395,-0.0391,-0.0385,-0.039,-0.0391,-0.0395,-0.0398,-0.0394,-0.0393,-0.0388,-0.039,-0.0392,-0.0373,-0.0382,-0.0382,-0.0365,-0.0363,-0.0362,-0.0342,-0.0385,0,0,0,0,0,-0.0398,-0.0403,-0.0395,-0.0402,-0.0399,-0.0398,-0.04,-0.0398,-0.0397,-0.0399,-0.0396,-0.0394,-0.0387,-0.0384,-0.0381,-0.0376,-0.0356,-0.0366,-0.0364,-0.0363,-0.0347,-0.0301,-0.0293,-0.0382,-0.0382,-0.0382,0,0,-0.0404,-0.0404,-0.0407,-0.0405,-0.0404,-0.0398,-0.0399,-0.04,-0.0394,-0.0398,-0.0394,-0.0391,-0.0386,-0.0374,-0.0372,-0.0374,-0.0331,-0.0362,-0.0361,-0.0346,-0.03,-0.0291,-0.0283,-0.0382,-0.0382,-0.0382,0,0,-0.041,-0.0417,-0.0419,-0.0415,-0.0413,-0.0408,-0.0409,-0.0403,-0.0399,-0.0398,-0.0392,-0.0374,-0.0382,-0.0355,-0.0348,-0.0336,-0.0325,-0.0347,-0.0317,-0.0273,-0.0264,-0.0257,-0.0232,-0.0222,-0.0343,-0.0343,-0.0343,0,-0.0419,-0.0419,-0.0419,-0.0416,-0.0412,-0.0411,-0.0405,-0.04,-0.0395,-0.0382,-0.0395,-0.0366,-0.0363,-0.0322,-0.0317,-0.0327,-0.0314,-0.0324,-0.0268,-0.026,-0.0252,-0.0229,-0.0218,-0.0342,-0.0342,-0.0342,-0.0342,0,-0.0419,-0.0422,-0.0422,-0.0417,-0.0411,-0.0409,-0.0395,-0.0389,-0.0388,-0.0375,-0.0345,-0.0333,-0.0309,-0.0306,-0.031,-0.0254,-0.0267,-0.0272,-0.0269,-0.0242,-0.0219,-0.0209,-0.034,-0.034,-0.0341,-0.0341,0,0,-0.0429,-0.0424,-0.0425,-0.0422,-0.0411,-0.0406,-0.0389,-0.0365,-0.0348,-0.0334,-0.0301,-0.0274,-0.0261,-0.0251,-0.0243,-0.0202,-0.0143,-0.0217,-0.0215,-0.0184,-0.0061,-0.0093,-0.0085,-0.0143,-0.0141,-0.0139,-0.007,0,-0.043,-0.0428,-0.042,-0.0413,-0.0408,-0.0394,-0.0376,-0.0353,-0.0337,-0.0306,-0.0268,-0.0245,-0.0243,-0.0234,-0.0187,-0.0162,-0.0113,-0.0162,-0.0098,-0.0096,-0.0121,-0.0073,-0.0132,-0.0062,-0.006,-0.0058,-0.0057,0,-0.043,-0.0429,-0.0426,-0.0408,-0.0403,-0.0398,-0.0366,-0.0348,-0.0299,-0.0283,-0.0237,-0.0219,-0.0155,-0.0166,-0.0072,-0.011,-0.0076,-0.0051,-0.0048,-0.0074,-0.0108,-0.0093,-0.0038,-0.0039,-0.0041,-0.0042,-0.0043,0,-0.044,-0.043,-0.0431,-0.0427,-0.0407,-0.0399,-0.0385,-0.0344,-0.0325,-0.027,-0.0253,-0.0177,-0.0151,-0.0084,-0.0042,-0.0055,0.0052,0.0041,0.0053,0.005,0.0047,0.0038,0.0129,0.0129,0.0129,0.0129,0.0129,0,-0.044,-0.0441,-0.0441,-0.0442,-0.0438,-0.0414,-0.0398,-0.0372,-0.0327,-0.03,-0.0247,-0.0213,-0.0129,-0.007,-0.0023,0.0043,0.0072,0.0078,0.0078,0.0051,0.0042,0.0054,0.0044,0.0131,0.0131,0.013,0.013,0,-0.0451,-0.0451,-0.0457,-0.0449,-0.0449,-0.0449,-0.0427,-0.0409,-0.0365,-0.0329,-0.0315,-0.0232,-0.0154,-0.0077,0.0027,0.0056,0.0125,0.0142,0.0102,0.0095,0.0089,0.008,0.0176,0.0176,0.0176,0.0175,0.0175,0,-0.0454,-0.0461,-0.0477,-0.0489,-0.0492,-0.0489,-0.0484,-0.0442,-0.0421,-0.0345,-0.0329,-0.0244,-0.0188,-0.0059,0.002,0.0124,0.0131,0.0163,0.0146,0.011,0.01,0.0091,0.0082,0.0175,0.0175,0.0175,0.0175,0,-0.0463,-0.048,-0.0491,-0.0516,-0.053,-0.0529,-0.0518,-0.0502,-0.0445,-0.0412,-0.0334,-0.0257,-0.0166,-0.0064,0.0015,0.0086,0.0141,0.0161,0.0162,0.0146,0.0109,0.0098,0.0089,0.0174,0.0174,0.0174,0.0174,0,-0.0478,-0.0497,-0.0519,-0.0535,-0.0557,-0.0556,-0.0546,-0.0509,-0.0477,-0.0391,-0.037,-0.0262,-0.0193,-0.0084,-0.0012,0.0056,0.0073,0.0084,0.009,0.0092,0.0039,-0.0022,0.0022,0,0,0,0,0,-0.0486,-0.0505,-0.0527,-0.0548,-0.0568,-0.0571,-0.0558,-0.0538,-0.049,-0.0443,-0.04,-0.0315,-0.0187,-0.0123,-0.0059,-0.0024,0.0076,0.0051,0.009,0.0169,0.017,0.0118,0,0,0,0,0,0,-0.0493,-0.0522,-0.0528,-0.0548,-0.056,-0.0573,-0.0565,-0.0534,-0.0494,-0.0441,-0.0369,-0.0319,-0.0192,-0.0228,-0.0064,-0.004,-0.0012,0.0118,0.0119,0.0168,0.0169,0.017,0.0118,0,0,0,0,0]}]]